| time (UTC) | temp F | wind direction | speed MPH | gust MPH | rain 1hr in | rain 24hr in | rain mn in | humidity % | barometer mb |
| 20260502123027 | 49 | 155 | 0.0 | 2.0 | 0.00 | 0.03 | 0.03 | 92 | 1015.5 |
| 20260502121527 | 48 | 151 | 0.0 | 3.0 | 0.00 | 0.03 | 0.03 | 91 | 1015.7 |
| 20260502113026 | 47 | 145 | 0.0 | 1.0 | 0.02 | 0.04 | 0.03 | 92 | 1015.6 |
| 20260502111527 | 48 | 355 | 0.0 | 2.0 | 0.02 | 0.04 | 0.02 | 91 | 1015.6 |
| 20260502104528 | 47 | 348 | 0.0 | 1.0 | 0.01 | 0.02 | 0.01 | 90 | 1015.5 |
| 20260502103030 | 47 | 67 | 0.0 | 0.0 | 0.01 | 0.02 | 0.01 | 91 | 1014.9 |
| 20260502101526 | 48 | 67 | 0.0 | 0.0 | 0.01 | 0.02 | 0.01 | 90 | 1015.2 |
| 20260502091527 | 48 | 67 | 0.0 | 0.0 | 0.00 | 0.01 | 0.00 | 87 | 1014.9 |
| 20260502070044 | 51 | 183 | 0.0 | 4.0 | 0.00 | 0.01 | 0.00 | 74 | 1014.8 |
| 20260502064527 | 51 | 203 | 0.0 | 3.0 | 0.00 | 0.01 | 0.00 | 73 | 1014.7 |
| 20260502063028 | 51 | 201 | 0.0 | 4.0 | 0.00 | 0.01 | 0.00 | 73 | 1014.8 |
| 20260502061528 | 51 | 205 | 0.0 | 5.0 | 0.00 | 0.01 | 0.00 | 72 | 1015.0 |
| 20260502060026 | 51 | 195 | 0.0 | 2.0 | 0.00 | 0.01 | 0.00 | 71 | 1015.0 |
| 20260502054527 | 52 | 171 | 0.0 | 2.0 | 0.00 | 0.01 | 0.00 | 70 | 1014.8 |
| 20260502053026 | 52 | 162 | 0.0 | 2.0 | 0.00 | 0.01 | 0.00 | 70 | 1014.9 |
| 20260502051544 | 52 | 175 | 0.0 | 0.0 | 0.00 | 0.01 | 0.00 | 69 | 1015.0 |
| 20260502050027 | 52 | 162 | 0.0 | 1.0 | 0.00 | 0.01 | 0.00 | 69 | 1015.1 |
| 20260502043026 | 52 | 169 | 0.0 | 4.0 | 0.00 | 0.01 | 0.00 | 68 | 1015.0 |
| 20260502040042 | 52 | 156 | 0.0 | 1.0 | 0.00 | 0.01 | 0.00 | 68 | 1015.0 |
| 20260502034537 | 52 | 160 | 0.0 | 2.0 | 0.00 | 0.01 | 0.01 | 67 | 1015.0 |
| 20260502031553 | 52 | 177 | 0.0 | 1.0 | 0.00 | 0.01 | 0.01 | 68 | 1015.1 |
| 20260502030037 | 52 | 191 | 0.0 | 0.0 | 0.00 | 0.01 | 0.01 | 66 | 1015.1 |
| 20260502024539 | 53 | 208 | 0.0 | 2.0 | 0.00 | 0.01 | 0.01 | 65 | 1015.1 |
| 20260502023037 | 53 | 187 | 0.0 | 4.0 | 0.00 | 0.01 | 0.01 | 63 | 1015.1 |
| 20260502021537 | 54 | 203 | 1.0 | 4.0 | 0.00 | 0.01 | 0.01 | 62 | 1015.1 |
| 20260502020037 | 55 | 193 | 1.0 | 6.0 | 0.00 | 0.01 | 0.01 | 60 | 1015.1 |
| 20260502014537 | 55 | 194 | 1.0 | 5.0 | 0.00 | 0.01 | 0.01 | 59 | 1015.0 |
| 20260502011538 | 56 | 187 | 2.0 | 6.0 | 0.00 | 0.01 | 0.01 | 51 | 1014.7 |
| 20260502010036 | 57 | 198 | 1.0 | 5.0 | 0.00 | 0.01 | 0.01 | 46 | 1014.4 |
| 20260502004554 | 57 | 208 | 1.0 | 6.0 | 0.00 | 0.01 | 0.01 | 44 | 1014.2 |
| 20260502003038 | 57 | 186 | 0.0 | 4.0 | 0.00 | 0.01 | 0.01 | 45 | 1014.0 |
| 20260502001537 | 55 | 187 | 0.0 | 3.0 | 0.00 | 0.01 | 0.01 | 50 | 1013.8 |
| 20260502000038 | 56 | 336 | 0.0 | 4.0 | 0.00 | 0.01 | 0.01 | 48 | 1013.5 |
| 20260501233038 | 59 | 337 | 0.0 | 0.0 | 0.00 | 0.01 | 0.01 | 41 | 1013.2 |
| 20260501231538 | 60 | 337 | 0.0 | 0.0 | 0.00 | 0.01 | 0.01 | 37 | 1013.1 |
| 20260501230036 | 61 | 295 | 0.0 | 4.0 | 0.00 | 0.01 | 0.01 | 36 | 1013.0 |
| 20260501224538 | 61 | 281 | 0.0 | 5.0 | 0.00 | 0.01 | 0.01 | 36 | 1012.8 |
| 20260501223037 | 62 | 340 | 0.0 | 6.0 | 0.00 | 0.01 | 0.01 | 34 | 1012.8 |
| 20260501221538 | 63 | 326 | 1.0 | 8.0 | 0.00 | 0.01 | 0.01 | 33 | 1012.8 |
| 20260501220039 | 63 | 322 | 1.0 | 6.0 | 0.00 | 0.01 | 0.01 | 35 | 1012.8 |
| 20260501214537 | 63 | 333 | 1.0 | 7.0 | 0.00 | 0.01 | 0.01 | 34 | 1012.8 |
| 20260501211537 | 66 | 355 | 2.0 | 7.0 | 0.00 | 0.01 | 0.01 | 32 | 1012.7 |
| 20260501210036 | 66 | 357 | 1.0 | 5.0 | 0.00 | 0.01 | 0.01 | 34 | 1012.6 |
| 20260501204538 | 65 | 334 | 2.0 | 6.0 | 0.00 | 0.01 | 0.01 | 34 | 1012.6 |
| 20260501203037 | 64 | 321 | 2.0 | 8.0 | 0.00 | 0.01 | 0.01 | 33 | 1012.7 |
| 20260501201537 | 64 | 307 | 3.0 | 12.0 | 0.00 | 0.01 | 0.01 | 34 | 1012.7 |
| 20260501200037 | 65 | 310 | 2.0 | 7.0 | 0.00 | 0.01 | 0.01 | 33 | 1012.8 |
| 20260501194536 | 65 | 324 | 2.0 | 6.0 | 0.00 | 0.01 | 0.01 | 34 | 1012.7 |
| 20260501193039 | 64 | 330 | 2.0 | 8.0 | 0.00 | 0.01 | 0.01 | 34 | 1012.9 |
| 20260501191537 | 65 | 278 | 3.0 | 10.0 | 0.00 | 0.01 | 0.01 | 33 | 1013.2 |
| 20260501190040 | 64 | 353 | 2.0 | 10.0 | 0.00 | 0.01 | 0.01 | 35 | 1013.4 |
| 20260501184537 | 63 | 310 | 3.0 | 8.0 | 0.00 | 0.01 | 0.01 | 35 | 1013.4 |
| 20260501181538 | 62 | 315 | 3.0 | 13.0 | 0.00 | 0.01 | 0.01 | 36 | 1013.7 |
| 20260501180037 | 63 | 315 | 1.0 | 9.0 | 0.00 | 0.01 | 0.01 | 36 | 1013.7 |
| 20260501174537 | 63 | 310 | 3.0 | 9.0 | 0.00 | 0.01 | 0.01 | 36 | 1013.7 |
| 20260501173037 | 62 | 308 | 3.0 | 10.0 | 0.00 | 0.01 | 0.01 | 36 | 1013.7 |
| 20260501170037 | 60 | 321 | 2.0 | 9.0 | 0.00 | 0.01 | 0.01 | 39 | 1013.9 |
| 20260501164536 | 59 | 302 | 1.0 | 5.0 | 0.00 | 0.01 | 0.01 | 42 | 1014.1 |
| 20260501163037 | 59 | 1 | 2.0 | 8.0 | 0.00 | 0.01 | 0.01 | 42 | 1014.2 |
| 20260501161536 | 58 | 323 | 1.0 | 9.0 | 0.00 | 0.01 | 0.01 | 44 | 1014.3 |
| 20260501160036 | 58 | 326 | 1.0 | 8.0 | 0.00 | 0.01 | 0.01 | 44 | 1014.5 |
| 20260501153038 | 58 | 330 | 2.0 | 9.0 | 0.00 | 0.01 | 0.01 | 46 | 1014.7 |
| 20260501151537 | 58 | 319 | 2.0 | 6.0 | 0.00 | 0.01 | 0.01 | 47 | 1014.9 |
| 20260501150037 | 57 | 333 | 1.0 | 6.0 | 0.00 | 0.01 | 0.01 | 48 | 1015.0 |
| 20260501141552 | 54 | 320 | 1.0 | 7.0 | 0.00 | 0.01 | 0.01 | 56 | 1015.2 |
| 20260501140054 | 55 | 342 | 0.0 | 5.0 | 0.00 | 0.03 | 0.01 | 54 | 1015.2 |